Regional Weather Roundup
Issued by NWS

Home | Current Version | Previous Version | Text Only | Print | Product List | Glossary Off
Versions: 1 2 3 4 5 6 7 8 9 10 11 12 13 14 15 16 17 18 19 20 21 22 23 24 25 26 27 28 29 30 31 32 33 34 35 36 37 38 39 40 41 42 43 44 45 46 47 48 49 50

000
ASUS44 KMEG 160310
RWRTN
TENNESSEE HOURLY STATE WEATHER ROUNDUP
NATIONAL WEATHER SERVICE MEMPHIS TN
1000 PM CDT TUE AUG 15 2017

TNZ002-004-019-021-049-052-054-088>092-160400-
WEST TENNESSEE

CITY           SKY/WX    TMP DP  RH WIND       PRES   REMARKS
MEMPHIS INTL   CLOUDY    82  77  84 S6        29.94S HX  90
NWS MEMPHIS      N/A     80 N/A N/A MISG        N/A
JACKSON        CLEAR     74  74 100 CALM      29.96S
COVINGTON      MOCLDY    75  75 100 CALM      29.95S
UNION CITY     PTCLDY    75  73  94 CALM      29.95S
PARIS          CLEAR     73  73 100 S3        29.97R
LEXINGTON      FOG       73  73 100 CALM      29.97S VSB 1
SELMER         MOCLDY    73  73 100 CALM      29.98R
SAVANNAH       CLOUDY    75  73  94 CALM      29.97R
$$

TNZ008-025-027-028-033-062-065-066-160400-
NORTH MIDDLE TENNESSEE

CITY           SKY/WX    TMP DP  RH WIND       PRES   REMARKS
NASHVILLE      PTCLDY    77  69  76 CALM      30.00R
PORTLAND       PTCLDY    75  73  94 S5        29.98R
CLARKSVILLE    MOCLDY    75  69  81 SW3       29.98R
SMYRNA         CLEAR     76  73  91 S3        30.00R
COOKEVILLE     CLEAR     73  72  94 CALM      30.01R
GALLATIN       CLEAR     77  73  88 CALM      30.01R
CROSSVILLE     PTCLDY    71  69  93 CALM      30.06R
$$

TNZ061-075-076-078-094-096-097-160400-
SOUTH MIDDLE TENNESSEE

CITY           SKY/WX    TMP DP  RH WIND       PRES   REMARKS
FAYETTEVILLE   CLEAR     75  73  94 S3        30.01S
TULLAHOMA      CLEAR     73  72  94 CALM      30.03S
WINCHESTER     CLEAR     73  73 100 S3        30.02S
MCMINNVILLE    CLEAR     75  75 100 CALM      30.02R
COLUMBIA       CLOUDY    73  73 100 CALM      29.98R
SHELBYVILLE    CLEAR     73  72  94 CALM      30.00S
$$

TNZ017-018-042-046-047-160400-
NORTHEAST TENNESSEE

CITY           SKY/WX    TMP DP  RH WIND       PRES   REMARKS
TRI CITIES     PTCLDY    73  72  96 CALM      30.03R
ELIZABETHTON   MOCLDY    70  70 100 CALM      30.04R
$$

TNZ012-013-036-069-073-074-160400-
CENTRAL EAST TENNESSEE

CITY           SKY/WX    TMP DP  RH WIND       PRES   REMARKS
KNOXVILLE      PTCLDY    78  71  79 W5        29.99R
OAK RIDGE      PTCLDY    77  72  84 CALM      30.00R
DOWNTOWN KNOXV   N/A     75  73  94 CALM      29.98R
GATLINBURG     PTCLDY    75  70  83 S3        29.99R
MORRISTOWN     PTCLDY    77  72  83 CALM      30.00R
JACKSBORO      CLEAR     73  72  94 CALM      30.04S
$$

TNZ083-085-099-160400-
SOUTHEAST TENNESSEE

CITY           SKY/WX    TMP DP  RH WIND       PRES   REMARKS
CHATTANOOGA    MOCLDY    76  73  91 SE5       30.01R
DAYTON         PTCLDY    75  75 100 CALM      29.99R
$$

SKY/WX REPORTED AS FAIR MEANS FEW OR NO CLOUDS BELOW
12 THOUSAND FEET.





USA.gov is the U.S. government's official web portal to all federal, state and local government web resources and services.